Time,TemperatureF,DewpointF,PressureIn,WindDirection,WindDirectionDegrees,WindSpeedMPH,WindSpeedGustMPH,Humidity,HourlyPrecipIn,Conditions,Clouds,dailyrainin,SoftwareType,DateUTC
2013-11-09 00:01:00,53.3,40.6,30.07,South,181,9.0,13.0,62,0.00,,---,0.00,VWS V14.00,2013-11-09 06:01:00,
2013-11-09 00:06:00,53.2,41.0,30.07,South,186,7.0,12.0,63,0.00,,---,0.00,VWS V14.00,2013-11-09 06:06:00,
2013-11-09 00:11:00,53.2,41.0,30.07,South,177,12.0,13.0,63,0.00,,---,0.00,VWS V14.00,2013-11-09 06:11:00,
2013-11-09 00:16:00,53.2,41.0,30.06,South,188,10.0,14.0,63,0.00,,---,0.00,VWS V14.00,2013-11-09 06:16:00,
2013-11-09 00:21:00,53.1,40.8,30.06,South,186,5.0,13.0,63,0.00,,---,0.00,VWS V14.00,2013-11-09 06:21:00,
2013-11-09 00:26:00,53.0,41.2,30.07,South,186,10.0,14.0,64,0.00,,---,0.00,VWS V14.00,2013-11-09 06:26:00,
2013-11-09 00:31:00,52.9,41.1,30.06,South,184,4.0,11.0,64,0.00,,---,0.00,VWS V14.00,2013-11-09 06:31:00,
2013-11-09 00:36:00,52.8,41.0,30.06,South,186,5.0,10.0,64,0.00,,---,0.00,VWS V14.00,2013-11-09 06:36:00,
2013-11-09 00:41:00,52.6,41.2,30.06,South,180,10.0,13.0,65,0.00,,---,0.00,VWS V14.00,2013-11-09 06:41:00,
2013-11-09 00:46:00,52.5,41.1,30.06,South,183,8.0,14.0,65,0.00,,---,0.00,VWS V14.00,2013-11-09 06:46:00,
2013-11-09 00:51:00,52.4,41.0,30.05,South,190,10.0,15.0,65,0.00,,---,0.00,VWS V14.00,2013-11-09 06:51:00,
2013-11-09 00:56:00,52.4,41.0,30.05,South,171,7.0,14.0,65,0.00,,---,0.00,VWS V14.00,2013-11-09 06:56:00,
2013-11-09 01:01:00,52.4,41.0,30.05,SSE,163,4.0,12.0,65,0.00,,---,0.00,VWS V14.00,2013-11-09 07:01:00,
2013-11-09 01:06:00,52.3,40.9,30.06,SSE,163,7.0,9.0,65,0.00,,---,0.00,VWS V14.00,2013-11-09 07:06:00,
2013-11-09 01:11:00,52.1,41.1,30.05,South,174,8.0,12.0,66,0.00,,---,0.00,VWS V14.00,2013-11-09 07:11:00,
2013-11-09 01:16:00,52.0,41.0,30.05,South,174,7.0,12.0,66,0.00,,---,0.00,VWS V14.00,2013-11-09 07:16:00,
2013-11-09 01:21:00,51.9,40.9,30.05,SSE,163,7.0,11.0,66,0.00,,---,0.00,VWS V14.00,2013-11-09 07:21:00,
2013-11-09 01:26:00,51.9,41.3,30.04,South,184,12.0,15.0,67,0.00,,---,0.00,VWS V14.00,2013-11-09 07:26:00,
2013-11-09 01:31:00,51.9,41.3,30.04,South,169,6.0,15.0,67,0.00,,---,0.00,VWS V14.00,2013-11-09 07:31:00,
2013-11-09 01:36:00,51.7,41.1,30.04,South,175,6.0,14.0,67,0.00,,---,0.00,VWS V14.00,2013-11-09 07:36:00,
2013-11-09 01:41:00,51.7,41.1,30.04,South,169,9.0,14.0,67,0.00,,---,0.00,VWS V14.00,2013-11-09 07:41:00,
2013-11-09 01:46:00,51.6,41.4,30.04,South,182,10.0,14.0,68,0.00,,---,0.00,VWS V14.00,2013-11-09 07:46:00,
2013-11-09 01:51:00,51.7,41.5,30.04,South,179,9.0,16.0,68,0.00,,---,0.00,VWS V14.00,2013-11-09 07:51:00,
2013-11-09 01:56:00,51.6,41.4,30.04,SSE,164,10.0,12.0,68,0.00,,---,0.00,VWS V14.00,2013-11-09 07:56:00,
2013-11-09 02:01:00,51.7,41.5,30.04,South,174,7.0,13.0,68,0.00,,---,0.00,VWS V14.00,2013-11-09 08:01:00,
2013-11-09 02:06:00,51.7,41.5,30.04,South,174,8.0,14.0,68,0.00,,---,0.00,VWS V14.00,2013-11-09 08:06:00,
2013-11-09 02:11:00,51.8,41.6,30.03,South,172,9.0,14.0,68,0.00,,---,0.00,VWS V14.00,2013-11-09 08:11:00,
2013-11-09 02:16:00,51.8,41.6,30.03,South,180,11.0,15.0,68,0.00,,---,0.00,VWS V14.00,2013-11-09 08:16:00,
2013-11-09 02:21:00,51.9,41.7,30.03,South,181,9.0,15.0,68,0.00,,---,0.00,VWS V14.00,2013-11-09 08:21:00,
2013-11-09 02:26:00,52.0,41.8,30.03,South,179,13.0,18.0,68,0.00,,---,0.00,VWS V14.00,2013-11-09 08:26:00,
2013-11-09 02:31:00,52.1,41.5,30.03,SSW,194,14.0,17.0,67,0.00,,---,0.00,VWS V14.00,2013-11-09 08:31:00,
2013-11-09 02:36:00,52.2,41.6,30.03,South,180,12.0,20.0,67,0.00,,---,0.00,VWS V14.00,2013-11-09 08:36:00,
2013-11-09 02:41:00,52.3,41.7,30.03,SSE,166,11.0,15.0,67,0.00,,---,0.00,VWS V14.00,2013-11-09 08:41:00,
2013-11-09 02:46:00,52.4,41.8,30.03,South,190,14.0,18.0,67,0.00,,---,0.00,VWS V14.00,2013-11-09 08:46:00,
2013-11-09 02:51:00,52.5,41.9,30.03,South,178,10.0,16.0,67,0.00,,---,0.00,VWS V14.00,2013-11-09 08:51:00,
2013-11-09 02:56:00,52.5,41.9,30.03,South,177,6.0,14.0,67,0.00,,---,0.00,VWS V14.00,2013-11-09 08:56:00,
2013-11-09 03:01:00,52.5,41.9,30.03,SSE,167,11.0,16.0,67,0.00,,---,0.00,VWS V14.00,2013-11-09 09:01:00,
2013-11-09 03:06:00,52.5,41.9,30.03,South,179,7.0,17.0,67,0.00,,---,0.00,VWS V14.00,2013-11-09 09:06:00,
2013-11-09 03:11:00,52.4,41.8,30.03,SSW,207,11.0,14.0,67,0.00,,---,0.00,VWS V14.00,2013-11-09 09:11:00,
2013-11-09 03:16:00,52.4,41.8,30.03,South,186,7.0,14.0,67,0.00,,---,0.00,VWS V14.00,2013-11-09 09:16:00,
2013-11-09 03:21:00,52.3,42.1,30.03,South,176,10.0,15.0,68,0.00,,---,0.00,VWS V14.00,2013-11-09 09:21:00,
2013-11-09 03:26:00,52.2,42.0,30.03,SSE,166,12.0,15.0,68,0.00,,---,0.00,VWS V14.00,2013-11-09 09:26:00,
2013-11-09 03:31:00,52.2,42.0,30.02,SSE,166,14.0,17.0,68,0.00,,---,0.00,VWS V14.00,2013-11-09 09:31:00,
2013-11-09 03:36:00,52.3,42.1,30.02,South,180,11.0,15.0,68,0.00,,---,0.00,VWS V14.00,2013-11-09 09:36:00,
2013-11-09 03:41:00,52.3,42.1,30.02,SSE,159,14.0,17.0,68,0.00,,---,0.00,VWS V14.00,2013-11-09 09:41:00,
2013-11-09 03:46:00,52.3,42.1,30.02,South,175,10.0,16.0,68,0.00,,---,0.00,VWS V14.00,2013-11-09 09:46:00,
2013-11-09 03:51:00,52.4,42.2,30.02,South,184,11.0,15.0,68,0.00,,---,0.00,VWS V14.00,2013-11-09 09:51:00,
2013-11-09 03:56:00,52.4,42.2,30.02,SSE,167,9.0,15.0,68,0.00,,---,0.00,VWS V14.00,2013-11-09 09:56:00,
2013-11-09 04:01:00,52.5,42.3,30.02,South,180,10.0,18.0,68,0.00,,---,0.00,VWS V14.00,2013-11-09 10:01:00,
2013-11-09 04:06:00,52.6,42.3,30.02,South,173,13.0,18.0,68,0.00,,---,0.00,VWS V14.00,2013-11-09 10:06:00,
2013-11-09 04:11:00,52.6,42.3,30.02,South,178,13.0,20.0,68,0.00,,---,0.00,VWS V14.00,2013-11-09 10:11:00,
2013-11-09 04:16:00,52.7,42.5,30.02,South,182,13.0,18.0,68,0.00,,---,0.00,VWS V14.00,2013-11-09 10:16:00,
2013-11-09 04:21:00,52.8,42.5,30.03,South,174,15.0,22.0,68,0.00,,---,0.00,VWS V14.00,2013-11-09 10:21:00,
2013-11-09 04:26:00,52.8,42.5,30.02,SSW,200,11.0,16.0,68,0.00,,---,0.00,VWS V14.00,2013-11-09 10:26:00,
2013-11-09 04:31:00,52.9,42.6,30.03,South,181,11.0,18.0,68,0.00,,---,0.00,VWS V14.00,2013-11-09 10:31:00,
2013-11-09 04:36:00,52.9,42.6,30.03,South,187,13.0,14.0,68,0.00,,---,0.00,VWS V14.00,2013-11-09 10:36:00,
2013-11-09 04:41:00,52.9,42.6,30.03,South,184,9.0,16.0,68,0.00,,---,0.00,VWS V14.00,2013-11-09 10:41:00,
2013-11-09 04:46:00,53.0,42.7,30.03,South,171,13.0,16.0,68,0.00,,---,0.00,VWS V14.00,2013-11-09 10:46:00,
2013-11-09 04:51:00,53.0,42.7,30.03,South,186,11.0,16.0,68,0.00,,---,0.00,VWS V14.00,2013-11-09 10:51:00,
2013-11-09 04:56:00,53.0,42.7,30.04,South,181,9.0,15.0,68,0.00,,---,0.00,VWS V14.00,2013-11-09 10:56:00,
2013-11-09 05:01:00,53.0,42.7,30.04,South,189,7.0,13.0,68,0.00,,---,0.00,VWS V14.00,2013-11-09 11:01:00,
2013-11-09 05:06:00,53.0,42.7,30.04,SSW,195,12.0,13.0,68,0.00,,---,0.00,VWS V14.00,2013-11-09 11:06:00,
2013-11-09 05:11:00,53.1,42.8,30.04,SSW,193,6.0,15.0,68,0.00,,---,0.00,VWS V14.00,2013-11-09 11:11:00,
2013-11-09 05:16:00,53.1,42.8,30.05,SSW,192,2.0,12.0,68,0.00,,---,0.00,VWS V14.00,2013-11-09 11:16:00,
2013-11-09 05:21:00,53.0,42.7,30.05,SSW,192,5.0,11.0,68,0.00,,---,0.00,VWS V14.00,2013-11-09 11:21:00,
2013-11-09 05:26:00,53.1,42.8,30.05,SSW,192,6.0,10.0,68,0.00,,---,0.00,VWS V14.00,2013-11-09 11:26:00,
2013-11-09 05:31:00,53.1,42.8,30.05,South,178,7.0,11.0,68,0.00,,---,0.00,VWS V14.00,2013-11-09 11:31:00,
2013-11-09 05:36:00,53.1,42.8,30.05,South,186,6.0,13.0,68,0.00,,---,0.00,VWS V14.00,2013-11-09 11:36:00,
2013-11-09 05:41:00,53.1,42.8,30.05,South,186,5.0,12.0,68,0.00,,---,0.00,VWS V14.00,2013-11-09 11:41:00,
2013-11-09 05:46:00,53.0,42.7,30.05,South,182,10.0,11.0,68,0.00,,---,0.00,VWS V14.00,2013-11-09 11:46:00,
2013-11-09 05:51:00,52.9,42.6,30.06,South,188,7.0,10.0,68,0.00,,---,0.00,VWS V14.00,2013-11-09 11:51:00,
2013-11-09 05:56:00,52.8,42.9,30.06,South,187,8.0,11.0,69,0.00,,---,0.00,VWS V14.00,2013-11-09 11:56:00,
2013-11-09 06:01:00,52.6,42.7,30.06,South,181,9.0,11.0,69,0.00,,---,0.00,VWS V14.00,2013-11-09 12:01:00,
2013-11-09 06:06:00,52.4,42.5,30.06,South,180,5.0,9.0,69,0.00,,---,0.00,VWS V14.00,2013-11-09 12:06:00,
2013-11-09 06:11:00,52.3,42.5,30.06,South,180,3.0,7.0,69,0.00,,---,0.00,VWS V14.00,2013-11-09 12:11:00,
2013-11-09 06:16:00,52.2,42.7,30.07,South,180,3.0,9.0,70,0.00,,---,0.00,VWS V14.00,2013-11-09 12:16:00,
2013-11-09 06:21:00,52.1,42.6,30.07,South,180,2.0,6.0,70,0.00,,---,0.00,VWS V14.00,2013-11-09 12:21:00,
2013-11-09 06:26:00,51.9,42.4,30.07,South,180,4.0,6.0,70,0.00,,---,0.00,VWS V14.00,2013-11-09 12:26:00,
2013-11-09 06:31:00,51.7,42.6,30.07,South,180,4.0,5.0,71,0.00,,---,0.00,VWS V14.00,2013-11-09 12:31:00,
2013-11-09 06:36:00,51.5,42.4,30.07,South,180,2.0,4.0,71,0.00,,---,0.00,VWS V14.00,2013-11-09 12:36:00,
2013-11-09 06:41:00,51.3,42.2,30.07,South,180,0.0,2.0,71,0.00,,---,0.00,VWS V14.00,2013-11-09 12:41:00,
2013-11-09 06:46:00,51.1,42.4,30.08,South,180,0.0,0.0,72,0.00,,---,0.00,VWS V14.00,2013-11-09 12:46:00,
2013-11-09 06:51:00,50.9,42.2,30.08,South,180,0.0,0.0,72,0.00,,---,0.00,VWS V14.00,2013-11-09 12:51:00,
2013-11-09 06:56:00,50.6,42.3,30.08,South,180,3.0,5.0,73,0.00,,---,0.00,VWS V14.00,2013-11-09 12:56:00,
2013-11-09 07:01:00,50.4,42.1,30.08,South,180,2.0,5.0,73,0.00,,---,0.00,VWS V14.00,2013-11-09 13:01:00,
2013-11-09 07:06:00,50.3,42.3,30.08,South,180,2.0,5.0,74,0.00,,---,0.00,VWS V14.00,2013-11-09 13:06:00,
2013-11-09 07:11:00,50.1,42.2,30.08,South,180,1.0,3.0,74,0.00,,---,0.00,VWS V14.00,2013-11-09 13:11:00,
2013-11-09 07:16:00,50.0,42.0,30.08,South,180,0.0,4.0,74,0.00,,---,0.00,VWS V14.00,2013-11-09 13:16:00,
2013-11-09 07:21:00,49.9,42.0,30.09,South,180,0.0,0.0,74,0.00,,---,0.00,VWS V14.00,2013-11-09 13:21:00,
2013-11-09 07:26:00,49.8,42.2,30.09,South,180,0.0,0.0,75,0.00,,---,0.00,VWS V14.00,2013-11-09 13:26:00,
2013-11-09 07:31:00,49.8,42.2,30.09,South,180,0.0,0.0,75,0.00,,---,0.00,VWS V14.00,2013-11-09 13:31:00,
2013-11-09 07:36:00,49.9,42.3,30.09,South,180,0.0,0.0,75,0.00,,---,0.00,VWS V14.00,2013-11-09 13:36:00,
2013-11-09 07:41:00,50.0,42.7,30.09,South,180,0.0,0.0,76,0.00,,---,0.00,VWS V14.00,2013-11-09 13:41:00,
2013-11-09 07:46:00,50.4,43.1,30.09,South,180,0.0,0.0,76,0.00,,---,0.00,VWS V14.00,2013-11-09 13:46:00,
2013-11-09 07:51:00,50.6,43.3,30.09,South,180,0.0,0.0,76,0.00,,---,0.00,VWS V14.00,2013-11-09 13:51:00,
2013-11-09 07:56:00,51.0,43.7,30.10,South,180,0.0,0.0,76,0.00,,---,0.00,VWS V14.00,2013-11-09 13:56:00,
2013-11-09 08:01:00,51.6,44.0,30.10,South,180,0.0,0.0,75,0.00,,---,0.00,VWS V14.00,2013-11-09 14:01:00,
2013-11-09 08:06:00,52.2,44.2,30.10,South,180,3.0,4.0,74,0.00,,---,0.00,VWS V14.00,2013-11-09 14:06:00,
2013-11-09 08:11:00,52.6,44.2,30.10,South,180,3.0,4.0,73,0.00,,---,0.00,VWS V14.00,2013-11-09 14:11:00,
2013-11-09 08:16:00,53.1,44.3,30.10,South,178,5.0,7.0,72,0.00,,---,0.00,VWS V14.00,2013-11-09 14:16:00,
2013-11-09 08:21:00,53.6,44.8,30.10,South,175,4.0,8.0,72,0.00,,---,0.00,VWS V14.00,2013-11-09 14:21:00,
2013-11-09 08:26:00,54.1,44.5,30.10,South,174,9.0,11.0,70,0.00,,---,0.00,VWS V14.00,2013-11-09 14:26:00,
2013-11-09 08:31:00,54.5,44.5,30.11,SSE,167,5.0,10.0,69,0.00,,---,0.00,VWS V14.00,2013-11-09 14:31:00,
2013-11-09 08:36:00,54.9,44.9,30.11,SSE,165,5.0,8.0,69,0.00,,---,0.00,VWS V14.00,2013-11-09 14:36:00,
2013-11-09 08:41:00,55.3,44.9,30.11,SSE,167,8.0,10.0,68,0.00,,---,0.00,VWS V14.00,2013-11-09 14:41:00,
2013-11-09 08:46:00,55.7,44.9,30.11,SE,144,11.0,12.0,67,0.00,,---,0.00,VWS V14.00,2013-11-09 14:46:00,
2013-11-09 08:51:00,56.1,44.9,30.11,SSE,164,2.0,12.0,66,0.00,,---,0.00,VWS V14.00,2013-11-09 14:51:00,
2013-11-09 08:56:00,56.5,44.5,30.12,South,169,9.0,11.0,64,0.00,,---,0.00,VWS V14.00,2013-11-09 14:56:00,
2013-11-09 09:01:00,56.8,44.8,30.12,South,182,5.0,13.0,64,0.00,,---,0.00,VWS V14.00,2013-11-09 15:01:00,
2013-11-09 09:06:00,57.2,44.7,30.12,South,184,10.0,10.0,63,0.00,,---,0.00,VWS V14.00,2013-11-09 15:06:00,
2013-11-09 09:11:00,57.6,45.1,30.12,SSE,166,10.0,11.0,63,0.00,,---,0.00,VWS V14.00,2013-11-09 15:11:00,
2013-11-09 09:16:00,58.0,45.1,30.12,South,178,5.0,10.0,62,0.00,,---,0.00,VWS V14.00,2013-11-09 15:16:00,
2013-11-09 09:21:00,58.5,45.1,30.12,South,178,10.0,11.0,61,0.00,,---,0.00,VWS V14.00,2013-11-09 15:21:00,
2013-11-09 09:26:00,59.0,44.7,30.12,South,180,6.0,12.0,59,0.00,,---,0.00,VWS V14.00,2013-11-09 15:26:00,
2013-11-09 09:31:00,59.0,44.3,30.12,SSE,166,12.0,13.0,58,0.00,,---,0.00,VWS V14.00,2013-11-09 15:31:00,
2013-11-09 09:36:00,59.4,44.6,30.12,South,176,9.0,12.0,58,0.00,,---,0.00,VWS V14.00,2013-11-09 15:36:00,
2013-11-09 09:41:00,59.8,45.0,30.12,South,175,4.0,10.0,58,0.00,,---,0.00,VWS V14.00,2013-11-09 15:41:00,
2013-11-09 09:46:00,60.2,44.5,30.12,SSW,198,9.0,12.0,56,0.00,,---,0.00,VWS V14.00,2013-11-09 15:46:00,
2013-11-09 09:51:00,60.6,44.8,30.12,South,184,4.0,11.0,56,0.00,,---,0.00,VWS V14.00,2013-11-09 15:51:00,
2013-11-09 09:56:00,61.0,45.2,30.12,South,174,5.0,11.0,56,0.00,,---,0.00,VWS V14.00,2013-11-09 15:56:00,
2013-11-09 10:01:00,61.3,45.0,30.12,SSE,162,5.0,9.0,55,0.00,,---,0.00,VWS V14.00,2013-11-09 16:01:00,
2013-11-09 10:06:00,61.7,44.4,30.12,South,180,5.0,10.0,53,0.00,,---,0.00,VWS V14.00,2013-11-09 16:06:00,
2013-11-09 10:11:00,62.1,44.3,30.13,South,169,6.0,9.0,52,0.00,,---,0.00,VWS V14.00,2013-11-09 16:11:00,
2013-11-09 10:16:00,62.7,44.3,30.13,SSE,157,5.0,10.0,51,0.00,,---,0.00,VWS V14.00,2013-11-09 16:16:00,
2013-11-09 10:21:00,63.1,44.7,30.13,SSW,205,4.0,12.0,51,0.00,,---,0.00,VWS V14.00,2013-11-09 16:21:00,
2013-11-09 10:26:00,63.4,44.5,30.13,South,171,9.0,11.0,50,0.00,,---,0.00,VWS V14.00,2013-11-09 16:26:00,
2013-11-09 10:31:00,63.5,44.0,30.12,South,184,4.0,11.0,49,0.00,,---,0.00,VWS V14.00,2013-11-09 16:31:00,
2013-11-09 10:36:00,63.7,44.2,30.13,South,169,6.0,14.0,49,0.00,,---,0.00,VWS V14.00,2013-11-09 16:36:00,
2013-11-09 10:41:00,64.1,44.0,30.12,SSW,199,11.0,14.0,48,0.00,,---,0.00,VWS V14.00,2013-11-09 16:41:00,
2013-11-09 10:46:00,64.1,44.0,30.12,SSE,165,10.0,14.0,48,0.00,,---,0.00,VWS V14.00,2013-11-09 16:46:00,
2013-11-09 10:51:00,64.3,44.2,30.12,South,171,6.0,12.0,48,0.00,,---,0.00,VWS V14.00,2013-11-09 16:51:00,
2013-11-09 10:56:00,64.4,44.3,30.12,SSW,199,5.0,12.0,48,0.00,,---,0.00,VWS V14.00,2013-11-09 16:56:00,
2013-11-09 11:01:00,64.4,43.2,30.12,SSW,194,9.0,12.0,46,0.00,,---,0.00,VWS V14.00,2013-11-09 17:01:00,
2013-11-09 11:06:00,64.8,43.6,30.12,SSW,213,5.0,15.0,46,0.00,,---,0.00,VWS V14.00,2013-11-09 17:06:00,
2013-11-09 11:11:00,65.2,44.5,30.12,South,178,4.0,15.0,47,0.00,,---,0.00,VWS V14.00,2013-11-09 17:11:00,
2013-11-09 11:16:00,65.8,43.9,30.11,SW,227,10.0,14.0,45,0.00,,---,0.00,VWS V14.00,2013-11-09 17:16:00,
2013-11-09 11:21:00,65.8,44.5,30.11,SSW,207,5.0,14.0,46,0.00,,---,0.00,VWS V14.00,2013-11-09 17:21:00,
2013-11-09 11:26:00,65.6,43.7,30.11,SSW,213,3.0,13.0,45,0.00,,---,0.00,VWS V14.00,2013-11-09 17:26:00,
2013-11-09 11:31:00,65.5,43.6,30.11,SSW,200,8.0,15.0,45,0.00,,---,0.00,VWS V14.00,2013-11-09 17:31:00,
2013-11-09 11:36:00,65.5,43.6,30.11,SSW,200,2.0,8.0,45,0.00,,---,0.00,VWS V14.00,2013-11-09 17:36:00,
2013-11-09 11:41:00,65.6,44.3,30.11,SSW,196,7.0,15.0,46,0.00,,---,0.00,VWS V14.00,2013-11-09 17:41:00,
2013-11-09 11:46:00,65.6,43.7,30.11,SSE,165,9.0,13.0,45,0.00,,---,0.00,VWS V14.00,2013-11-09 17:46:00,
2013-11-09 11:51:00,65.8,43.3,30.10,SSW,207,5.0,14.0,44,0.00,,---,0.00,VWS V14.00,2013-11-09 17:51:00,
2013-11-09 11:56:00,65.9,44.0,30.10,SSW,211,6.0,11.0,45,0.00,,---,0.00,VWS V14.00,2013-11-09 17:56:00,
2013-11-09 12:01:00,66.3,44.3,30.10,SSW,206,6.0,11.0,45,0.00,,---,0.00,VWS V14.00,2013-11-09 18:01:00,
2013-11-09 12:06:00,66.5,42.7,30.10,SSW,213,11.0,12.0,42,0.00,,---,0.00,VWS V14.00,2013-11-09 18:06:00,
2013-11-09 12:11:00,66.7,43.5,30.10,SSW,207,9.0,13.0,43,0.00,,---,0.00,VWS V14.00,2013-11-09 18:11:00,
2013-11-09 12:16:00,66.9,43.1,30.09,SSW,193,5.0,12.0,42,0.00,,---,0.00,VWS V14.00,2013-11-09 18:16:00,
2013-11-09 12:21:00,67.3,44.7,30.09,SE,143,6.0,11.0,44,0.00,,---,0.00,VWS V14.00,2013-11-09 18:21:00,
2013-11-09 12:26:00,67.4,44.2,30.09,SW,215,13.0,15.0,43,0.00,,---,0.00,VWS V14.00,2013-11-09 18:26:00,
2013-11-09 12:31:00,67.4,43.5,30.09,SW,236,9.0,15.0,42,0.00,,---,0.00,VWS V14.00,2013-11-09 18:31:00,
2013-11-09 12:36:00,67.1,43.9,30.09,SSE,157,5.0,11.0,43,0.00,,---,0.00,VWS V14.00,2013-11-09 18:36:00,
2013-11-09 12:41:00,67.2,44.0,30.09,South,173,11.0,13.0,43,0.00,,---,0.00,VWS V14.00,2013-11-09 18:41:00,
2013-11-09 12:46:00,67.7,44.4,30.09,South,171,0.0,13.0,43,0.00,,---,0.00,VWS V14.00,2013-11-09 18:46:00,
2013-11-09 12:51:00,68.1,44.2,30.09,SSE,152,12.0,13.0,42,0.00,,---,0.00,VWS V14.00,2013-11-09 18:51:00,
2013-11-09 12:56:00,68.3,43.7,30.09,South,186,9.0,16.0,41,0.00,,---,0.00,VWS V14.00,2013-11-09 18:56:00,
2013-11-09 13:01:00,68.1,43.5,30.09,SSW,199,9.0,12.0,41,0.00,,---,0.00,VWS V14.00,2013-11-09 19:01:00,
2013-11-09 13:06:00,67.9,44.0,30.09,South,183,5.0,12.0,42,0.00,,---,0.00,VWS V14.00,2013-11-09 19:06:00,
2013-11-09 13:11:00,67.8,43.9,30.09,SSW,192,6.0,10.0,42,0.00,,---,0.00,VWS V14.00,2013-11-09 19:11:00,
2013-11-09 13:16:00,67.7,43.8,30.09,SSW,206,5.0,11.0,42,0.00,,---,0.00,VWS V14.00,2013-11-09 19:16:00,
2013-11-09 13:21:00,67.4,44.2,30.09,SSW,208,4.0,13.0,43,0.00,,---,0.00,VWS V14.00,2013-11-09 19:21:00,
2013-11-09 13:26:00,67.1,44.5,30.09,South,182,7.0,10.0,44,0.00,,---,0.00,VWS V14.00,2013-11-09 19:26:00,
2013-11-09 13:31:00,66.9,45.5,30.09,SSE,155,6.0,12.0,46,0.00,,---,0.00,VWS V14.00,2013-11-09 19:31:00,
2013-11-09 13:36:00,66.5,45.1,30.09,SSE,158,8.0,11.0,46,0.00,,---,0.00,VWS V14.00,2013-11-09 19:36:00,
2013-11-09 13:41:00,66.1,44.7,30.08,SSW,194,9.0,13.0,46,0.00,,---,0.00,VWS V14.00,2013-11-09 19:41:00,
2013-11-09 13:46:00,65.9,45.1,30.08,South,171,8.0,11.0,47,0.00,,---,0.00,VWS V14.00,2013-11-09 19:46:00,
2013-11-09 13:51:00,65.8,45.0,30.09,South,172,6.0,12.0,47,0.00,,---,0.00,VWS V14.00,2013-11-09 19:51:00,
2013-11-09 13:56:00,65.6,44.8,30.09,South,185,4.0,11.0,47,0.00,,---,0.00,VWS V14.00,2013-11-09 19:56:00,
2013-11-09 14:01:00,65.5,44.8,30.09,South,182,4.0,12.0,47,0.00,,---,0.00,VWS V14.00,2013-11-09 20:01:00,
2013-11-09 14:06:00,65.3,44.0,30.09,South,180,3.0,11.0,46,0.00,,---,0.00,VWS V14.00,2013-11-09 20:06:00,
2013-11-09 14:11:00,65.3,44.0,30.09,South,171,5.0,9.0,46,0.00,,---,0.00,VWS V14.00,2013-11-09 20:11:00,
2013-11-09 14:16:00,65.3,44.0,30.10,South,176,13.0,13.0,46,0.00,,---,0.00,VWS V14.00,2013-11-09 20:16:00,
2013-11-09 14:21:00,65.2,43.9,30.10,SSE,162,6.0,12.0,46,0.00,,---,0.00,VWS V14.00,2013-11-09 20:21:00,
2013-11-09 14:26:00,65.1,43.8,30.10,SSE,161,8.0,9.0,46,0.00,,---,0.00,VWS V14.00,2013-11-09 20:26:00,
2013-11-09 14:31:00,65.1,43.8,30.10,South,173,2.0,10.0,46,0.00,,---,0.00,VWS V14.00,2013-11-09 20:31:00,
2013-11-09 14:36:00,65.1,43.8,30.09,SSE,166,10.0,11.0,46,0.00,,---,0.00,VWS V14.00,2013-11-09 20:36:00,
2013-11-09 14:41:00,65.0,43.7,30.09,South,170,7.0,12.0,46,0.00,,---,0.00,VWS V14.00,2013-11-09 20:41:00,
2013-11-09 14:46:00,65.0,43.7,30.10,SSW,194,2.0,10.0,46,0.00,,---,0.00,VWS V14.00,2013-11-09 20:46:00,
2013-11-09 14:51:00,64.9,43.7,30.09,South,186,5.0,12.0,46,0.00,,---,0.00,VWS V14.00,2013-11-09 20:51:00,
2013-11-09 14:56:00,64.8,44.1,30.10,South,178,10.0,13.0,47,0.00,,---,0.00,VWS V14.00,2013-11-09 20:56:00,
2013-11-09 15:01:00,64.7,44.6,30.09,South,180,5.0,11.0,48,0.00,,---,0.00,VWS V14.00,2013-11-09 21:01:00,
2013-11-09 15:06:00,64.7,45.1,30.09,South,184,7.0,10.0,49,0.00,,---,0.00,VWS V14.00,2013-11-09 21:06:00,
2013-11-09 15:11:00,64.5,43.8,30.09,South,185,4.0,11.0,47,0.00,,---,0.00,VWS V14.00,2013-11-09 21:11:00,
2013-11-09 15:16:00,64.5,44.4,30.09,South,184,7.0,7.0,48,0.00,,---,0.00,VWS V14.00,2013-11-09 21:16:00,
2013-11-09 15:21:00,64.4,44.3,30.10,South,181,6.0,10.0,48,0.00,,---,0.00,VWS V14.00,2013-11-09 21:21:00,
2013-11-09 15:26:00,64.4,44.3,30.10,South,178,4.0,10.0,48,0.00,,---,0.00,VWS V14.00,2013-11-09 21:26:00,
2013-11-09 15:31:00,64.4,44.8,30.10,South,174,2.0,8.0,49,0.00,,---,0.00,VWS V14.00,2013-11-09 21:31:00,
2013-11-09 15:36:00,64.3,45.3,30.10,South,173,5.0,6.0,50,0.00,,---,0.00,VWS V14.00,2013-11-09 21:36:00,
2013-11-09 15:41:00,64.3,45.3,30.10,SSE,163,4.0,9.0,50,0.00,,---,0.00,VWS V14.00,2013-11-09 21:41:00,
2013-11-09 15:46:00,64.2,45.7,30.10,SSE,162,2.0,7.0,51,0.00,,---,0.00,VWS V14.00,2013-11-09 21:46:00,
2013-11-09 15:51:00,64.1,46.1,30.10,SSE,161,3.0,10.0,52,0.00,,---,0.00,VWS V14.00,2013-11-09 21:51:00,
2013-11-09 15:56:00,64.1,46.1,30.10,SSE,161,2.0,8.0,52,0.00,,---,0.00,VWS V14.00,2013-11-09 21:56:00,
2013-11-09 16:01:00,64.1,46.1,30.10,SSE,157,1.0,7.0,52,0.00,,---,0.00,VWS V14.00,2013-11-09 22:01:00,
2013-11-09 16:06:00,64.1,46.1,30.10,SSE,157,2.0,5.0,52,0.00,,---,0.00,VWS V14.00,2013-11-09 22:06:00,
2013-11-09 16:11:00,64.1,46.1,30.10,SE,146,5.0,8.0,52,0.00,,---,0.00,VWS V14.00,2013-11-09 22:11:00,
2013-11-09 16:16:00,64.1,46.6,30.11,SE,140,6.0,7.0,53,0.00,,---,0.00,VWS V14.00,2013-11-09 22:16:00,
2013-11-09 16:21:00,64.0,47.0,30.11,ESE,108,8.0,11.0,54,0.00,,---,0.00,VWS V14.00,2013-11-09 22:21:00,
2013-11-09 16:26:00,63.7,47.2,30.10,ESE,111,9.0,10.0,55,0.00,,---,0.00,VWS V14.00,2013-11-09 22:26:00,
2013-11-09 16:31:00,63.5,47.5,30.10,ESE,117,5.0,12.0,56,0.00,,---,0.00,VWS V14.00,2013-11-09 22:31:00,
2013-11-09 16:36:00,63.3,46.9,30.10,ESE,123,9.0,14.0,55,0.00,,---,0.00,VWS V14.00,2013-11-09 22:36:00,
2013-11-09 16:41:00,63.1,47.2,30.10,SE,145,10.0,15.0,56,0.00,,---,0.00,VWS V14.00,2013-11-09 22:41:00,
2013-11-09 16:46:00,63.0,47.5,30.11,SE,136,5.0,13.0,57,0.00,,---,0.00,VWS V14.00,2013-11-09 22:46:00,
2013-11-09 16:51:00,62.8,47.4,30.11,SE,140,10.0,14.0,57,0.00,,---,0.00,VWS V14.00,2013-11-09 22:51:00,
2013-11-09 16:56:00,62.6,47.2,30.11,SE,144,8.0,13.0,57,0.00,,---,0.00,VWS V14.00,2013-11-09 22:56:00,
2013-11-09 17:01:00,62.3,46.9,30.11,SE,145,5.0,12.0,57,0.00,,---,0.00,VWS V14.00,2013-11-09 23:01:00,
2013-11-09 17:06:00,62.1,47.2,30.11,SE,140,3.0,9.0,58,0.00,,---,0.00,VWS V14.00,2013-11-09 23:06:00,
2013-11-09 17:11:00,61.7,46.8,30.11,SE,140,3.0,11.0,58,0.00,,---,0.00,VWS V14.00,2013-11-09 23:11:00,
2013-11-09 17:16:00,61.4,47.0,30.11,SE,141,4.0,11.0,59,0.00,,---,0.00,VWS V14.00,2013-11-09 23:16:00,
2013-11-09 17:21:00,61.0,46.6,30.11,SE,140,6.0,9.0,59,0.00,,---,0.00,VWS V14.00,2013-11-09 23:21:00,
2013-11-09 17:26:00,60.7,46.8,30.12,SE,139,4.0,9.0,60,0.00,,---,0.00,VWS V14.00,2013-11-09 23:26:00,
2013-11-09 17:31:00,60.2,46.7,30.12,SE,139,5.0,7.0,61,0.00,,---,0.00,VWS V14.00,2013-11-09 23:31:00,
2013-11-09 17:36:00,59.7,46.2,30.12,SE,138,4.0,6.0,61,0.00,,---,0.00,VWS V14.00,2013-11-09 23:36:00,
2013-11-09 17:41:00,59.2,46.2,30.12,SE,138,2.0,5.0,62,0.00,,---,0.00,VWS V14.00,2013-11-09 23:41:00,
2013-11-09 17:46:00,59.0,46.0,30.13,SE,138,3.0,4.0,62,0.00,,---,0.00,VWS V14.00,2013-11-09 23:46:00,
2013-11-09 17:51:00,58.5,46.0,30.13,SE,138,5.0,7.0,63,0.00,,---,0.00,VWS V14.00,2013-11-09 23:51:00,
2013-11-09 17:56:00,58.0,45.5,30.13,SE,138,4.0,5.0,63,0.00,,---,0.00,VWS V14.00,2013-11-09 23:56:00,
2013-11-09 18:01:00,57.7,45.6,30.14,SE,138,3.0,5.0,64,0.00,,---,0.00,VWS V14.00,2013-11-10 00:01:00,
2013-11-09 18:06:00,57.4,45.3,30.14,SE,138,0.0,3.0,64,0.00,,---,0.00,VWS V14.00,2013-11-10 00:06:00,
2013-11-09 18:11:00,57.0,45.4,30.14,SE,138,2.0,3.0,65,0.00,,---,0.00,VWS V14.00,2013-11-10 00:11:00,
2013-11-09 18:16:00,56.6,45.0,30.14,SE,138,1.0,3.0,65,0.00,,---,0.00,VWS V14.00,2013-11-10 00:16:00,
2013-11-09 18:21:00,56.2,45.0,30.14,SE,138,2.0,4.0,66,0.00,,---,0.00,VWS V14.00,2013-11-10 00:21:00,
2013-11-09 18:26:00,55.9,45.1,30.14,SE,138,0.0,3.0,67,0.00,,---,0.00,VWS V14.00,2013-11-10 00:26:00,
2013-11-09 18:31:00,55.6,44.8,30.15,SE,138,0.0,2.0,67,0.00,,---,0.00,VWS V14.00,2013-11-10 00:31:00,
2013-11-09 18:36:00,55.4,45.0,30.15,SE,138,0.0,0.0,68,0.00,,---,0.00,VWS V14.00,2013-11-10 00:36:00,
2013-11-09 18:41:00,55.2,44.8,30.15,SE,138,0.0,0.0,68,0.00,,---,0.00,VWS V14.00,2013-11-10 00:41:00,
2013-11-09 18:46:00,55.0,44.7,30.15,SE,138,0.0,0.0,68,0.00,,---,0.00,VWS V14.00,2013-11-10 00:46:00,
2013-11-09 18:51:00,54.9,44.9,30.16,SE,138,0.0,0.0,69,0.00,,---,0.00,VWS V14.00,2013-11-10 00:51:00,
2013-11-09 18:56:00,54.7,44.7,30.16,SE,138,4.0,4.0,69,0.00,,---,0.00,VWS V14.00,2013-11-10 00:56:00,
2013-11-09 19:01:00,54.5,44.5,30.16,SE,138,1.0,3.0,69,0.00,,---,0.00,VWS V14.00,2013-11-10 01:01:00,
2013-11-09 19:06:00,54.4,44.5,30.16,SE,138,3.0,5.0,69,0.00,,---,0.00,VWS V14.00,2013-11-10 01:06:00,
2013-11-09 19:11:00,54.2,44.3,30.17,SE,138,0.0,3.0,69,0.00,,---,0.00,VWS V14.00,2013-11-10 01:11:00,
2013-11-09 19:16:00,54.1,44.2,30.17,SE,138,0.0,0.0,69,0.00,,---,0.00,VWS V14.00,2013-11-10 01:16:00,
2013-11-09 19:21:00,54.1,44.2,30.17,SE,138,0.0,0.0,69,0.00,,---,0.00,VWS V14.00,2013-11-10 01:21:00,
2013-11-09 19:26:00,54.0,44.1,30.17,SE,138,0.0,0.0,69,0.00,,---,0.00,VWS V14.00,2013-11-10 01:26:00,
2013-11-09 19:31:00,53.9,44.0,30.17,SE,138,0.0,0.0,69,0.00,,---,0.00,VWS V14.00,2013-11-10 01:31:00,
2013-11-09 19:36:00,53.7,43.8,30.17,SE,138,0.0,0.0,69,0.00,,---,0.00,VWS V14.00,2013-11-10 01:36:00,
2013-11-09 19:41:00,53.6,43.7,30.17,SE,138,0.0,0.0,69,0.00,,---,0.00,VWS V14.00,2013-11-10 01:41:00,
2013-11-09 19:46:00,53.5,44.0,30.18,SE,138,0.0,0.0,70,0.00,,---,0.00,VWS V14.00,2013-11-10 01:46:00,
2013-11-09 19:51:00,53.3,43.8,30.18,SE,138,0.0,0.0,70,0.00,,---,0.00,VWS V14.00,2013-11-10 01:51:00,
2013-11-09 19:56:00,53.2,43.7,30.18,SE,138,0.0,0.0,70,0.00,,---,0.00,VWS V14.00,2013-11-10 01:56:00,
2013-11-09 20:01:00,53.1,43.6,30.18,SE,138,0.0,0.0,70,0.00,,---,0.00,VWS V14.00,2013-11-10 02:01:00,
2013-11-09 20:06:00,52.9,43.8,30.18,SE,138,0.0,0.0,71,0.00,,---,0.00,VWS V14.00,2013-11-10 02:06:00,
2013-11-09 20:11:00,52.7,43.6,30.18,SE,138,0.0,0.0,71,0.00,,---,0.00,VWS V14.00,2013-11-10 02:11:00,
2013-11-09 20:16:00,52.6,43.8,30.18,SE,138,0.0,0.0,72,0.00,,---,0.00,VWS V14.00,2013-11-10 02:16:00,
2013-11-09 20:21:00,52.4,43.7,30.19,SE,138,0.0,0.0,72,0.00,,---,0.00,VWS V14.00,2013-11-10 02:21:00,
2013-11-09 20:26:00,52.3,43.9,30.19,SE,138,0.0,0.0,73,0.00,,---,0.00,VWS V14.00,2013-11-10 02:26:00,
2013-11-09 20:31:00,52.2,43.8,30.19,SE,138,0.0,0.0,73,0.00,,---,0.00,VWS V14.00,2013-11-10 02:31:00,
2013-11-09 20:36:00,52.1,43.7,30.19,SE,138,0.0,0.0,73,0.00,,---,0.00,VWS V14.00,2013-11-10 02:36:00,
2013-11-09 20:41:00,52.0,43.6,30.19,SE,138,0.0,0.0,73,0.00,,---,0.00,VWS V14.00,2013-11-10 02:41:00,
2013-11-09 20:46:00,51.9,43.9,30.19,SE,138,0.0,0.0,74,0.00,,---,0.00,VWS V14.00,2013-11-10 02:46:00,
2013-11-09 20:51:00,51.8,43.8,30.20,SE,138,0.0,0.0,74,0.00,,---,0.00,VWS V14.00,2013-11-10 02:51:00,
2013-11-09 20:56:00,51.7,43.7,30.20,SE,138,0.0,0.0,74,0.00,,---,0.00,VWS V14.00,2013-11-10 02:56:00,
2013-11-09 21:01:00,51.5,43.5,30.20,SE,138,0.0,0.0,74,0.00,,---,0.00,VWS V14.00,2013-11-10 03:01:00,
2013-11-09 21:06:00,51.4,43.8,30.20,SE,138,0.0,0.0,75,0.00,,---,0.00,VWS V14.00,2013-11-10 03:06:00,
2013-11-09 21:11:00,51.3,43.3,30.20,SE,138,0.0,0.0,74,0.00,,---,0.00,VWS V14.00,2013-11-10 03:11:00,
2013-11-09 21:16:00,51.2,43.6,30.21,SE,138,0.0,0.0,75,0.00,,---,0.00,VWS V14.00,2013-11-10 03:16:00,
2013-11-09 21:21:00,51.0,43.4,30.21,SE,138,0.0,0.0,75,0.00,,---,0.00,VWS V14.00,2013-11-10 03:21:00,
2013-11-09 21:26:00,51.0,43.4,30.21,SE,138,0.0,0.0,75,0.00,,---,0.00,VWS V14.00,2013-11-10 03:26:00,
2013-11-09 21:31:00,50.9,43.6,30.21,SE,138,0.0,0.0,76,0.00,,---,0.00,VWS V14.00,2013-11-10 03:31:00,
2013-11-09 21:36:00,50.9,43.6,30.21,SE,138,0.0,0.0,76,0.00,,---,0.00,VWS V14.00,2013-11-10 03:36:00,
2013-11-09 21:41:00,50.9,44.0,30.21,SE,138,0.0,0.0,77,0.00,,---,0.00,VWS V14.00,2013-11-10 03:41:00,
2013-11-09 21:46:00,51.0,44.0,30.21,SE,138,0.0,0.0,77,0.00,,---,0.00,VWS V14.00,2013-11-10 03:46:00,
2013-11-09 21:51:00,51.0,44.0,30.21,SE,138,0.0,0.0,77,0.00,,---,0.00,VWS V14.00,2013-11-10 03:51:00,
2013-11-09 21:56:00,51.0,44.0,30.22,SE,138,0.0,0.0,77,0.00,,---,0.00,VWS V14.00,2013-11-10 03:56:00,
2013-11-09 22:01:00,51.0,44.0,30.22,SE,138,0.0,0.0,77,0.00,,---,0.00,VWS V14.00,2013-11-10 04:01:00,
2013-11-09 22:06:00,51.0,44.0,30.22,SE,138,0.0,0.0,77,0.00,,---,0.00,VWS V14.00,2013-11-10 04:06:00,
2013-11-09 22:11:00,51.1,44.5,30.22,SE,138,0.0,0.0,78,0.00,,---,0.00,VWS V14.00,2013-11-10 04:11:00,
2013-11-09 22:16:00,51.2,44.6,30.22,SE,138,0.0,0.0,78,0.00,,---,0.00,VWS V14.00,2013-11-10 04:16:00,
2013-11-09 22:21:00,51.3,44.7,30.22,SE,138,0.0,0.0,78,0.00,,---,0.00,VWS V14.00,2013-11-10 04:21:00,
2013-11-09 22:26:00,51.4,44.8,30.22,SE,138,0.0,0.0,78,0.00,,---,0.00,VWS V14.00,2013-11-10 04:26:00,
2013-11-09 22:31:00,51.5,44.9,30.22,SE,138,0.0,0.0,78,0.00,,---,0.00,VWS V14.00,2013-11-10 04:31:00,
2013-11-09 22:36:00,51.5,45.2,30.23,SE,138,0.0,0.0,79,0.00,,---,0.00,VWS V14.00,2013-11-10 04:36:00,
2013-11-09 22:41:00,51.6,45.3,30.23,SE,138,0.0,0.0,79,0.00,,---,0.00,VWS V14.00,2013-11-10 04:41:00,
2013-11-09 22:46:00,51.5,45.2,30.23,SE,138,0.0,0.0,79,0.00,,---,0.00,VWS V14.00,2013-11-10 04:46:00,
2013-11-09 22:51:00,51.5,44.9,30.23,SE,138,0.0,0.0,78,0.00,,---,0.00,VWS V14.00,2013-11-10 04:51:00,
2013-11-09 22:56:00,51.4,44.8,30.23,SE,138,0.0,0.0,78,0.00,,---,0.00,VWS V14.00,2013-11-10 04:56:00,
2013-11-09 23:01:00,51.2,44.6,30.23,SE,138,0.0,0.0,78,0.00,,---,0.00,VWS V14.00,2013-11-10 05:01:00,
2013-11-09 23:06:00,51.1,44.5,30.23,SE,138,0.0,0.0,78,0.00,,---,0.00,VWS V14.00,2013-11-10 05:06:00,
2013-11-09 23:11:00,51.1,44.5,30.23,SE,138,0.0,0.0,78,0.00,,---,0.00,VWS V14.00,2013-11-10 05:11:00,
2013-11-09 23:16:00,51.0,44.4,30.23,SE,138,0.0,0.0,78,0.00,,---,0.00,VWS V14.00,2013-11-10 05:16:00,
2013-11-09 23:21:00,50.9,44.6,30.23,SE,138,0.0,0.0,79,0.00,,---,0.00,VWS V14.00,2013-11-10 05:21:00,
2013-11-09 23:26:00,50.8,44.9,30.23,SE,138,0.0,0.0,80,0.00,,---,0.00,VWS V14.00,2013-11-10 05:26:00,
2013-11-09 23:31:00,50.6,45.0,30.23,SE,138,0.0,0.0,81,0.00,,---,0.00,VWS V14.00,2013-11-10 05:31:00,
2013-11-09 23:36:00,50.4,44.8,30.23,SE,138,0.0,0.0,81,0.00,,---,0.00,VWS V14.00,2013-11-10 05:36:00,
2013-11-09 23:41:00,50.1,44.8,30.23,SE,138,0.0,0.0,82,0.00,,---,0.00,VWS V14.00,2013-11-10 05:41:00,
2013-11-09 23:46:00,49.9,44.6,30.23,SE,138,0.0,0.0,82,0.00,,---,0.00,VWS V14.00,2013-11-10 05:46:00,
2013-11-09 23:51:00,49.4,44.1,30.23,SE,138,0.0,0.0,82,0.00,,---,0.00,VWS V14.00,2013-11-10 05:51:00,
2013-11-09 23:56:00,49.0,44.1,30.23,SE,138,0.0,0.0,83,0.00,,---,0.00,VWS V14.00,2013-11-10 05:56:00,